"Pseudo-MPEC" for A11aDOM

Created 2024 Sep 13 14:22:02 UT using Find_Orb

Click here for an explanation of pseudo-MPECs

 
 Astrometry: 
     A11aDOM* C2024 09 04.02930523 28 25.322-03 42 23.51   ~948q 16.13cVNEOCPM22
     A11aDOM  C2024 09 04.03248423 29 26.450-03 38 44.45   ~948q 16.43cVNEOCPM22
     A11aDOM  C2024 09 04.04463023 33 20.503-03 24 34.81   ~948q 16.35cVNEOCPM22

Station data:
(M22) ATLAS South Africa, Sutherland  (S32.380156 E20.810590)  South Africa.
   Observers L. Denneau, R. Siverd, J. Tonry, H. Weiland. Measurers L.
   Denneau, N. Erasmus, A. Fitzsimmons, A. Lawrence, J. Robinson, R. Siverd,
   J. Tonry, H. Weiland. 0.5-m reflector + CCD.

Orbital elements:  A11aDOM
   Perigee 2024 Sep 4.20387 +/- 21.5 TT =  4:53:34 (JD 2460557.70387)
Epoch 2024 Sep  4.0 TT = JDT 2460557.5                           AutoNEOCP
q465876.963 +/- 7.12e+6             (J2000 equator)
H   28.06 G 0.15                    Peri.  357.65215 +/- 27
                                    Node     9.68137 +/- 0.019
e  84.7138407 +/- 0.253             Incl.   13.43842 +/- 0.6
From 3 observations 2024 Sept. 4 (22.1 min); mean residual 1".02
Residuals in arcseconds: 
240904 M22  1.4-  .50+    240904 M22  1.8+  .63-    240904 M22  .38-  .13+    

Ephemerides (geocentric):
Date (UTC) HH   RA             Dec           delta  r     elong  mag " sig PA
---- --------  ------------   ------------  ------ ------ -----  --- --------
2024 09 13 14  06 16 03.212   +13 23 09.23  .04589 0.9968  77.2 25.0  44d  91
2024 09 13 15  06 16 07.805   +13 23 11.08  .04609 0.9968  77.2 25.0  44d  90
2024 09 13 16  06 16 12.362   +13 23 12.90  .04629 0.9968  77.2 25.0  44d  90
2024 09 13 17  06 16 16.884   +13 23 14.71  .04649 0.9968  77.2 25.0  44d  90
2024 09 13 18  06 16 21.371   +13 23 16.50  .04669 0.9967  77.3 25.0  44d  90
2024 09 13 19  06 16 25.825   +13 23 18.28  .04690 0.9967  77.3 25.0  44d  90
2024 09 13 20  06 16 30.244   +13 23 20.04  .04710 0.9967  77.3 25.0  44d  90
2024 09 13 21  06 16 34.631   +13 23 21.78  .04730 0.9966  77.3 25.1  44d  90
2024 09 13 22  06 16 38.985   +13 23 23.51  .04750 0.9966  77.3 25.1  44d  90
2024 09 13 23  06 16 43.307   +13 23 25.22  .04770 0.9966  77.4 25.1  44d  90
2024 09 14 00  06 16 47.596   +13 23 26.92  .04790 0.9966  77.4 25.1  44d  90
2024 09 14 01  06 16 51.855   +13 23 28.60  .04810 0.9965  77.4 25.1  44d  90
2024 09 14 02  06 16 56.082   +13 23 30.27  .04830 0.9965  77.4 25.1  44d  90
2024 09 14 03  06 17 00.279   +13 23 31.92  .04851 0.9965  77.5 25.1  44d  90
2024 09 14 04  06 17 04.446   +13 23 33.56  .04871 0.9964  77.5 25.1  44d  90
2024 09 14 05  06 17 08.582   +13 23 35.18  .04891 0.9964  77.5 25.1  44d  90
2024 09 14 06  06 17 12.690   +13 23 36.80  .04911 0.9964  77.5 25.1  44d  90
2024 09 14 07  06 17 16.768   +13 23 38.39  .04931 0.9964  77.5 25.1  44d  90
2024 09 14 08  06 17 20.817   +13 23 39.97  .04951 0.9963  77.6 25.1  44d  90
2024 09 14 09  06 17 24.839   +13 23 41.54  .04971 0.9963  77.6 25.1  44d  90
2024 09 14 10  06 17 28.832   +13 23 43.10  .04991 0.9963  77.6 25.1  44d  90
2024 09 14 11  06 17 32.798   +13 23 44.64  .05011 0.9963  77.6 25.2  44d  90
2024 09 14 12  06 17 36.736   +13 23 46.17  .05032 0.9962  77.7 25.2  44d  90
2024 09 14 13  06 17 40.648   +13 23 47.69  .05052 0.9962  77.7 25.2  44d  90
2024 09 14 14  06 17 44.532   +13 23 49.20  .05072 0.9962  77.7 25.2  44d  90
2024 09 14 15  06 17 48.391   +13 23 50.69  .05092 0.9962  77.7 25.2  44d  90
2024 09 14 16  06 17 52.224   +13 23 52.17  .05112 0.9962  77.8 25.2  44d  90
2024 09 14 17  06 17 56.031   +13 23 53.64  .05132 0.9961  77.8 25.2  44d  90
2024 09 14 18  06 17 59.813   +13 23 55.09  .05152 0.9961  77.8 25.2  44d  90
2024 09 14 19  06 18 03.570   +13 23 56.54  .05172 0.9961  77.8 25.2  44d  90
2024 09 14 20  06 18 07.302   +13 23 57.97  .05192 0.9961  77.9 25.2  44d  90
2024 09 14 21  06 18 11.010   +13 23 59.39  .05212 0.9960  77.9 25.2  44d  90
2024 09 14 22  06 18 14.693   +13 24 00.80  .05233 0.9960  77.9 25.2  44d  90
2024 09 14 23  06 18 18.353   +13 24 02.20  .05253 0.9960  77.9 25.2  44d  90
2024 09 15 00  06 18 21.990   +13 24 03.59  .05273 0.9960  78.0 25.2  44d  90
2024 09 15 01  06 18 25.603   +13 24 04.96  .05293 0.9960  78.0 25.2  44d  90
2024 09 15 02  06 18 29.193   +13 24 06.33  .05313 0.9959  78.0 25.3  44d  90
2024 09 15 03  06 18 32.761   +13 24 07.68  .05333 0.9959  78.0 25.3  44d  90
2024 09 15 04  06 18 36.306   +13 24 09.03  .05353 0.9959  78.1 25.3  44d  90
2024 09 15 05  06 18 39.829   +13 24 10.36  .05373 0.9959  78.1 25.3  44d  90
2024 09 15 06  06 18 43.330   +13 24 11.68  .05393 0.9959  78.1 25.3  44d  90
2024 09 15 07  06 18 46.810   +13 24 12.99  .05413 0.9959  78.1 25.3  44d  90
2024 09 15 08  06 18 50.268   +13 24 14.30  .05433 0.9958  78.2 25.3  44d  90
2024 09 15 09  06 18 53.705   +13 24 15.59  .05453 0.9958  78.2 25.3  44d  90
2024 09 15 10  06 18 57.121   +13 24 16.87  .05474 0.9958  78.2 25.3  44d  90
2024 09 15 11  06 19 00.517   +13 24 18.14  .05494 0.9958  78.2 25.3  44d  90
2024 09 15 12  06 19 03.892   +13 24 19.41  .05514 0.9958  78.3 25.3  44d  90
2024 09 15 13  06 19 07.247   +13 24 20.66  .05534 0.9958  78.3 25.3  44d  90